| time (UTC) | temp F | wind direction | speed MPH | gust MPH | rain 1hr in | rain 24hr in | rain mn in | humidity % | barometer mb |
| 20260504173003 | 67 | 104 | 2.0 | 2.0 | 0.00 | 0.00 | 0.00 | 53 | 1012.0 |
| 20260504050003 | 55 | 132 | 6.0 | 12.0 | 0.00 | 0.00 | 0.00 | 51 | 1014.6 |
| 20260504043003 | 54 | 125 | 7.0 | 11.0 | 0.00 | 0.00 | 0.00 | 52 | 1014.4 |
| 20260504040004 | 54 | 127 | 7.0 | 16.0 | 0.00 | 0.00 | 0.00 | 51 | 1014.2 |
| 20260504033003 | 54 | 118 | 10.0 | 17.0 | 0.00 | 0.00 | 0.00 | 51 | 1014.1 |
| 20260504030024 | 54 | 116 | 8.0 | 15.0 | 0.00 | 0.00 | 0.00 | 49 | 1014.3 |
| 20260504023003 | 54 | 120 | 8.0 | 14.0 | 0.00 | 0.00 | 0.00 | 49 | 1014.2 |
| 20260504020003 | 55 | 125 | 8.0 | 16.0 | 0.00 | 0.00 | 0.00 | 47 | 1014.1 |
| 20260504013003 | 55 | 125 | 8.0 | 15.0 | 0.00 | 0.00 | 0.00 | 47 | 1014.3 |
| 20260504010024 | 56 | 127 | 9.0 | 16.0 | 0.00 | 0.00 | 0.00 | 46 | 1014.1 |
| 20260504003025 | 56 | 130 | 9.0 | 15.0 | 0.00 | 0.00 | 0.00 | 46 | 1014.2 |
| 20260504000003 | 56 | 121 | 9.0 | 15.0 | 0.00 | 0.00 | 0.00 | 45 | 1014.3 |
| 20260503233003 | 57 | 127 | 8.0 | 12.0 | 0.00 | 0.00 | 0.00 | 45 | 1014.6 |
| 20260503230004 | 57 | 123 | 8.0 | 13.0 | 0.00 | 0.00 | 0.00 | 45 | 1014.4 |
| 20260503223024 | 58 | 123 | 8.0 | 13.0 | 0.00 | 0.00 | 0.00 | 45 | 1014.7 |
| 20260503220024 | 58 | 128 | 9.0 | 15.0 | 0.00 | 0.00 | 0.00 | 46 | 1014.8 |
| 20260503213003 | 59 | 129 | 7.0 | 13.0 | 0.00 | 0.00 | 0.00 | 46 | 1015.0 |
| 20260503210003 | 60 | 120 | 7.0 | 11.0 | 0.00 | 0.00 | 0.00 | 44 | 1014.9 |
| 20260503203003 | 61 | 121 | 6.0 | 9.0 | 0.00 | 0.00 | 0.00 | 44 | 1015.1 |
| 20260503200003 | 61 | 121 | 7.0 | 13.0 | 0.00 | 0.00 | 0.00 | 44 | 1015.1 |
| 20260503193004 | 62 | 131 | 6.0 | 13.0 | 0.00 | 0.00 | 0.00 | 43 | 1015.0 |
| 20260503190004 | 63 | 125 | 5.0 | 10.0 | 0.00 | 0.00 | 0.00 | 40 | 1015.2 |
| 20260503183003 | 64 | 129 | 6.0 | 12.0 | 0.00 | 0.00 | 0.00 | 38 | 1015.1 |
| 20260503180004 | 66 | 147 | 10.0 | 18.0 | 0.00 | 0.00 | 0.00 | 36 | 1014.7 |